Tracking 19854 objects as of 23-Sep-2019
HD Live streaming from Space Station
objects crossing your sky now

SL-8 R/B

Track SL-8 R/B now!
10-day predictions


NORAD ID: 7284
Int'l Code: 1974-028B
Perigee: 1,369.5 km
Apogee: 1,395.9 km
Inclination: 74.0 °
Period: 113.2 minutes
Semi major axis: 7753 km
RCS: 5.3325 m2 (large)
Launch date: April 29, 1974
Source: Commonwealth of Independent States (former USSR) (CIS)
Launch site: PLESETSK MISSILE AND SPACE COMPLEX (PKMTR)

Note: This is a ROCKET BODY
aabbcc
Your satellite tracking list
Your tracking list is empty




NASA's NSSDC Master Catalog

Two Line Element Set (TLE):
1  7284U 74028B   19264.50231942 -.00000085  00000-0 -33442-3 0  9994
2  7284  74.0368 255.5438 0017001 192.7842 300.0226 12.71562600107310
Source of the keplerian elements: AFSPC